Wind_Speed
12 12 12 12 12 12 11 12 13 13 13 13 12 12 12 13 13 12 12 12 12 12 12 12 13 14 14 15 16 17 17 17 17 18 23 22 17 15 14 12 10 12 13 12 12 12 13 13 12 11 11 10 9 10 12 9 5 3 3 2 1 3 4 4 6 5 2 3 6 11 13 2 2 5 10 10 11 13 11 3 1 7 7 8 12 8 13 20
12 12 13 12 12 12 11 12 13 13 13 13 13 13 13 13 13 13 12 12 12 12 13 12 12 13 14 15 15 17 17 18 19 22 24 20 17 16 14 13 14 15 15 15 14 13 13 13 13 12 12 10 7 8 10 8 7 5 3 2 4 5 5 5 6 4 2 4 8 15 14 1 6 7 10 6 3 7 7 0 1 4 7 10 12 11 15 20
12 12 14 13 12 12 12 12 13 13 13 13 14 14 14 14 14 13 12 12 12 13 13 13 12 12 13 14 15 15 16 17 20 25 24 19 18 17 15 15 16 17 16 15 13 12 11 10 12 14 12 8 6 8 8 7 7 6 4 2 6 6 5 7 9 9 9 9 10 12 11 2 7 6 7 6 4 3 3 4 4 5 10 13 12 14 17 20
12 12 14 13 12 13 12 12 12 14 14 14 14 14 15 14 14 13 12 11 12 13 14 13 12 12 12 13 13 12 13 15 17 22 19 15 15 16 18 18 18 19 16 15 13 11 11 9 11 15 12 6 6 7 6 8 7 5 5 4 6 3 3 10 10 12 14 11 10 7 6 5 4 6 9 11 7 2 6 10 10 11 16 16 15 17 20 21
13 14 15 14 13 14 13 12 12 13 14 14 14 14 15 14 14 13 12 12 13 14 14 13 12 12 12 12 12 9 7 7 8 11 9 8 9 12 18 19 20 21 16 16 16 13 12 11 12 15 11 4 5 4 5 11 9 4 5 6 8 4 3 10 9 9 9 7 9 7 3 2 4 6 13 14 7 3 8 12 11 13 17 16 19 21 21 21
14 14 14 15 14 14 14 13 13 13 14 15 14 15 15 14 14 13 12 12 13 15 14 14 12 11 12 11 11 8 3 3 2 2 2 5 3 4 11 17 21 22 18 17 17 13 13 14 15 15 9 4 5 5 6 11 9 3 4 6 12 11 8 12 13 13 10 5 6 6 7 2 6 5 12 12 3 3 6 12 11 12 16 17 20 21 22 21
16 15 14 14 13 13 14 13 13 13 14 15 15 15 14 14 13 13 13 13 14 15 14 14 12 11 11 10 11 8 8 15 11 4 3 5 5 8 8 14 21 23 21 20 18 16 16 18 18 15 9 3 5 7 6 7 8 5 4 4 11 15 14 17 19 21 19 11 10 10 12 7 5 5 9 7 4 6 5 12 13 13 18 18 19 20 20 19
17 16 15 15 14 12 13 14 13 13 14 15 15 14 14 14 13 13 13 13 14 15 15 14 12 11 10 10 10 7 12 22 17 10 12 12 12 11 8 13 22 25 22 21 19 17 18 20 21 16 8 4 5 7 6 4 3 5 5 6 7 13 15 18 20 23 22 19 17 12 12 11 2 6 7 3 5 4 6 12 13 15 18 18 19 20 19 18
17 18 17 16 15 13 12 14 14 14 14 15 15 14 13 13 12 13 13 13 14 15 15 13 12 11 10 10 7 5 15 22 17 15 15 14 13 10 7 11 22 26 21 19 18 17 19 21 23 16 7 7 6 4 7 5 4 6 9 9 7 12 15 17 19 21 20 18 16 8 10 13 1 6 3 1 1 4 9 12 14 17 18 18 19 19 19 18
19 20 19 16 15 15 14 13 14 13 14 15 15 14 13 13 13 13 13 13 14 15 15 13 12 10 9 10 4 3 14 15 11 12 12 12 11 8 6 10 20 23 18 17 17 18 20 22 24 16 5 7 7 3 6 6 4 6 10 10 10 15 15 14 15 17 14 13 14 7 8 9 3 2 2 1 4 7 12 14 16 18 17 18 18 18 18 17
21 21 19 16 14 15 15 14 14 13 14 15 14 13 12 12 13 12 13 13 14 15 14 13 11 10 10 10 8 8 12 10 8 9 8 8 9 7 6 10 15 18 15 15 16 19 21 20 21 15 2 4 6 4 5 7 7 5 5 5 9 12 12 12 13 15 8 7 14 11 5 5 5 0 3 6 9 10 14 17 18 18 16 17 17 17 17 16
21 20 18 16 14 13 14 14 14 14 14 14 13 12 12 12 12 12 13 13 14 14 14 12 10 11 10 11 18 19 13 9 7 6 5 8 8 7 7 10 11 11 10 12 14 18 20 16 17 15 4 3 4 1 4 7 6 3 3 2 7 6 7 10 9 11 8 4 11 9 1 5 2 3 5 10 13 14 16 16 17 18 16 16 16 16 16 16
20 18 16 16 14 13 14 15 14 14 14 14 13 12 12 12 11 12 13 13 14 14 13 12 10 11 8 12 23 21 13 12 11 8 7 7 9 10 10 11 10 8 8 8 10 14 17 15 16 14 5 3 2 1 2 3 2 2 2 2 4 6 6 7 4 5 8 4 7 12 1 6 6 8 7 14 17 18 16 15 16 17 17 17 16 16 17 17
19 18 16 16 14 12 14 15 15 14 14 14 12 12 12 11 11 12 12 13 14 13 13 12 11 9 8 16 23 19 15 17 18 16 12 8 9 13 14 14 12 11 10 10 9 10 13 17 16 10 4 3 4 3 4 4 1 1 1 1 1 1 5 7 2 5 7 4 9 14 3 6 6 8 13 18 21 23 19 16 17 18 18 18 17 17 18 19
21 20 17 15 15 13 12 14 15 14 14 13 12 12 12 11 11 11 12 13 12 12 11 11 10 7 9 19 21 16 16 20 22 20 17 13 11 14 15 15 13 12 12 11 10 7 9 18 16 8 5 5 3 2 3 3 3 2 2 2 2 3 5 8 3 6 5 3 8 10 2 5 5 9 18 22 24 25 22 19 19 19 20 19 19 19 20 19
22 19 15 14 15 14 12 14 15 14 13 13 12 12 11 11 11 12 12 12 10 10 9 8 8 5 6 13 14 12 16 21 22 20 19 16 13 13 13 12 11 11 11 10 9 6 7 15 15 8 6 3 1 3 3 2 3 3 2 2 2 3 3 5 2 3 2 2 3 3 2 3 4 7 14 20 23 22 18 19 19 19 21 21 21 21 21 21
21 18 14 14 14 14 14 14 14 14 13 13 12 11 10 11 11 10 10 9 8 7 6 4 3 4 8 11 11 11 13 14 15 17 19 18 15 13 11 10 10 11 10 8 11 10 9 13 12 6 4 1 3 4 3 2 2 3 1 2 2 3 2 2 2 3 2 3 2 1 2 4 5 5 13 19 21 19 16 18 20 20 22 23 22 22 22 23
19 16 13 13 13 13 14 14 14 13 12 11 11 10 9 10 9 8 9 8 6 3 3 5 4 1 9 14 12 9 5 5 7 13 18 19 17 15 12 9 9 12 11 9 10 12 10 9 7 3 1 3 3 4 4 4 4 3 2 3 1 1 1 3 3 2 3 3 1 1 2 6 7 4 13 20 20 18 14 16 19 19 22 23 21 21 23 25
17 13 13 15 14 13 13 13 14 12 11 10 9 7 5 4 4 4 8 10 10 6 2 8 13 5 4 4 6 9 8 6 5 12 18 20 20 17 13 9 10 13 12 7 7 11 9 4 3 4 3 4 5 6 6 6 7 7 4 5 3 0 3 4 5 5 0 1 2 4 5 5 5 5 10 16 17 16 12 11 14 17 21 22 20 21 25 26
15 12 14 15 14 13 12 12 13 11 10 9 6 3 2 1 1 1 6 14 18 15 9 11 19 18 11 3 2 6 9 7 5 11 17 19 21 20 15 11 9 10 8 6 6 9 9 5 3 5 5 6 8 7 7 6 7 7 5 4 4 2 3 5 5 5 3 3 4 7 6 4 7 7 8 12 12 11 12 10 12 17 20 20 19 22 26 26
14 13 15 15 14 13 12 12 13 10 10 8 5 1 2 2 1 0 3 12 20 23 22 22 21 24 24 18 14 13 9 5 4 9 16 19 22 18 13 11 6 4 5 6 7 5 7 5 5 7 8 8 7 6 8 6 5 5 4 3 1 2 4 6 4 4 1 3 4 6 5 3 6 6 4 6 8 8 13 14 14 18 20 19 21 24 28 27
13 14 14 14 13 13 12 12 12 10 9 8 6 1 5 6 2 3 4 8 16 19 23 25 26 32 33 28 26 22 12 7 7 8 15 21 23 16 11 9 4 3 3 5 7 4 4 4 7 8 6 6 5 5 7 6 5 4 3 3 1 3 3 6 4 4 3 2 4 3 5 2 4 4 4 2 1 3 7 12 13 16 19 20 23 25 26 22
13 14 14 15 13 12 12 12 10 9 9 8 5 3 5 4 4 5 6 6 12 17 18 21 26 33 35 30 27 20 11 8 9 10 17 22 22 17 13 8 4 4 3 4 6 5 3 5 7 6 7 8 5 4 8 6 4 4 4 4 2 4 1 3 4 5 3 1 2 3 6 3 5 4 4 7 7 6 3 6 9 11 15 16 17 18 17 14
13 14 15 15 12 12 13 11 8 7 8 5 2 4 3 4 3 4 5 4 7 12 15 19 21 27 31 26 18 14 13 13 10 10 18 24 21 16 12 8 5 4 3 5 7 7 4 6 7 9 7 8 6 4 7 6 1 0 3 5 3 4 3 4 4 6 4 2 2 6 6 5 6 5 5 9 9 10 10 4 2 7 12 12 11 12 11 10
13 13 14 13 12 13 11 8 6 6 6 2 3 4 2 5 4 3 3 3 5 6 9 12 15 22 26 19 14 13 11 13 15 13 19 27 24 15 10 9 6 3 4 7 7 6 5 5 9 9 5 6 7 4 5 6 4 2 3 6 6 6 5 4 4 6 4 3 2 5 6 3 6 7 6 7 7 9 12 11 8 5 6 10 11 12 11 10
13 12 13 13 13 12 9 6 4 4 4 5 6 3 3 5 4 1 2 2 4 3 3 7 9 12 15 15 17 14 4 7 15 16 20 25 25 17 9 6 4 3 6 6 4 2 3 5 8 7 6 6 6 4 4 6 6 1 5 9 8 6 4 4 2 2 2 1 1 4 6 2 5 7 7 6 5 7 9 11 14 14 6 7 10 11 11 10
12 11 12 13 12 10 7 5 4 4 5 7 5 2 3 4 2 4 3 4 4 4 4 7 7 8 11 15 21 15 1 4 11 14 21 23 22 18 9 4 4 4 5 5 2 2 2 6 6 5 6 5 5 4 5 6 8 3 6 8 8 7 6 5 3 3 2 3 2 4 5 5 1 3 6 6 4 8 10 10 13 17 14 6 6 8 9 9
10 10 12 13 11 9 8 8 7 6 7 6 4 2 1 1 5 6 3 3 2 3 3 5 7 8 9 14 26 18 3 9 11 10 22 23 19 14 7 5 6 5 5 6 4 4 3 7 7 7 5 3 5 5 8 9 6 5 5 7 7 6 6 4 5 3 1 1 2 6 3 5 1 4 5 5 5 8 10 9 10 13 14 7 1 3 5 7
11 11 11 12 11 9 9 9 6 7 8 5 4 3 1 4 7 4 2 1 3 1 1 5 8 8 9 13 22 18 5 6 6 9 21 21 17 11 5 8 9 6 5 5 6 4 2 8 11 9 5 5 6 5 10 11 4 5 5 6 4 5 4 3 5 3 3 3 3 6 3 5 2 4 4 4 4 5 6 6 7 9 10 9 6 4 5 5
12 11 11 12 11 9 9 7 4 8 8 6 4 3 3 7 6 2 1 3 4 1 1 6 7 8 13 11 10 12 5 1 5 12 18 16 16 11 7 10 9 6 2 1 5 4 1 4 8 7 6 7 7 6 10 12 6 5 6 6 6 5 4 4 3 3 4 1 5 6 1 5 1 3 3 2 2 2 3 3 4 6 8 9 10 9 8 7
12 11 12 12 10 9 9 5 5 9 8 5 4 4 6 6 3 2 4 4 3 1 2 3 4 7 13 10 5 8 4 1 6 12 10 8 10 8 7 7 4 5 2 1 2 3 5 2 3 4 7 7 6 4 5 6 4 6 5 4 5 3 4 4 4 4 4 2 6 5 1 5 3 2 1 2 3 3 3 3 3 4 6 9 12 11 10 9
12 14 14 12 11 10 7 4 8 10 7 4 4 5 7 3 1 3 3 4 2 2 1 2 3 5 9 7 6 8 5 1 4 7 7 5 5 5 4 4 4 4 2 3 1 2 2 2 3 3 6 8 7 3 2 3 3 5 4 6 5 1 2 1 2 1 2 3 3 4 2 3 2 1 1 3 4 4 5 5 5 5 7 9 11 11 10 10
14 16 15 12 12 10 6 6 9 10 6 4 4 4 5 2 2 5 5 3 1 2 3 1 3 5 7 6 5 7 6 3 3 4 6 6 5 5 2 2 7 7 2 4 3 1 2 4 4 1 3 7 8 5 2 2 4 5 5 6 5 3 3 2 2 0 2 3 2 4 3 1 0 0 1 2 4 4 6 7 7 7 8 10 10 10 11 11
15 16 14 11 11 9 6 8 10 9 6 4 3 3 4 2 3 4 5 5 2 2 3 3 0 5 7 5 5 7 5 1 4 5 4 5 5 5 2 1 5 6 4 4 3 4 4 2 4 4 3 7 9 6 7 7 6 6 5 6 5 4 5 4 3 3 3 1 3 5 3 1 2 1 2 3 3 4 6 7 7 7 9 11 12 12 12 12
14 13 12 10 9 7 8 12 12 9 8 5 4 3 3 3 3 1 2 3 2 2 4 7 2 4 5 3 4 8 5 1 4 5 4 6 5 5 5 2 4 4 4 4 2 2 4 4 7 3 2 8 9 6 7 8 4 2 3 6 3 5 5 3 3 4 5 3 2 3 1 1 1 1 2 3 3 4 6 6 6 7 9 12 14 14 14 14
12 10 10 8 6 8 12 16 15 13 11 6 4 1 3 3 2 1 1 2 2 1 5 8 2 5 4 2 4 7 3 2 5 4 2 5 4 4 6 4 4 5 5 4 2 1 3 3 6 1 2 6 8 7 6 6 4 2 3 4 4 4 7 6 2 1 4 4 1 1 1 0 1 1 2 3 2 2 4 5 5 5 8 12 14 14 14 15
8 8 7 5 6 10 15 18 17 15 12 6 3 3 2 2 3 2 2 6 6 2 2 4 1 4 4 2 4 7 3 2 4 3 2 3 2 3 5 3 4 7 6 4 2 2 4 2 5 1 4 6 6 9 4 3 6 5 4 6 3 3 5 5 3 3 4 3 0 2 1 3 2 1 3 6 6 5 5 4 4 5 9 11 13 13 13 14
9 8 6 5 8 12 15 17 18 16 10 4 3 3 2 2 3 3 4 7 6 2 1 3 2 2 4 4 4 6 5 3 3 3 3 2 2 4 6 3 4 7 9 6 2 1 3 0 6 2 2 2 3 8 4 4 3 4 6 6 4 4 2 2 3 2 2 3 0 2 2 2 3 2 5 8 8 7 6 5 4 5 9 11 11 12 12 13
8 7 5 3 8 13 14 18 19 15 7 3 4 2 2 3 5 10 11 7 4 1 2 5 4 1 3 5 4 5 6 6 5 3 3 2 1 2 3 3 4 8 10 8 4 1 2 3 3 3 1 1 3 3 3 0 4 5 5 4 2 3 4 3 2 3 5 4 2 1 1 3 3 3 5 8 8 7 6 5 4 6 11 12 12 12 13 14
5 4 4 0 7 12 16 20 18 10 3 2 3 2 2 2 4 13 16 9 2 3 4 5 3 1 2 4 5 5 5 5 5 3 1 2 2 1 2 1 3 5 7 8 5 1 2 3 2 4 4 1 1 1 5 6 3 4 4 2 1 2 3 3 2 2 4 5 3 3 1 5 4 3 4 7 7 5 5 5 5 9 12 13 13 13 14 15
2 3 2 2 9 14 20 18 9 4 2 1 2 1 2 3 3 12 18 11 6 9 10 7 4 2 2 3 4 4 4 4 3 3 1 1 2 1 0 1 2 4 5 5 5 2 1 2 3 2 4 2 2 4 4 7 6 5 4 5 5 4 4 4 2 1 2 4 4 5 3 5 4 1 3 6 6 5 7 7 7 10 12 13 14 14 14 14
2 1 1 4 11 18 19 10 2 2 3 2 2 2 3 4 4 8 12 8 6 9 10 7 5 3 2 2 3 3 4 3 2 2 2 1 3 3 2 3 3 7 6 3 3 3 3 3 3 0 1 1 4 4 0 4 6 7 3 4 5 4 5 6 4 3 2 3 2 4 2 4 3 1 2 6 7 7 10 11 10 10 12 13 13 12 12 11
3 1 2 6 15 17 10 2 0 3 2 2 2 3 4 4 3 4 7 4 3 5 4 4 2 1 1 1 2 4 4 3 3 2 3 2 2 1 4 2 6 6 5 3 2 2 2 3 3 0 3 3 4 4 4 3 6 7 3 2 3 3 4 5 5 4 3 3 2 4 1 3 3 1 5 10 11 11 11 11 11 12 11 11 9 9 10 9
2 2 3 12 19 11 3 1 2 3 3 2 1 3 5 5 4 6 6 3 2 2 3 3 1 1 1 2 3 3 4 3 3 1 2 3 1 2 6 5 6 4 2 4 6 5 3 1 4 3 2 4 4 5 5 5 4 4 1 3 2 4 6 5 2 4 3 4 4 5 2 4 2 3 7 11 12 11 11 10 11 11 11 10 8 7 7 8
2 4 6 16 18 4 2 2 2 3 3 1 1 2 4 5 7 11 12 7 5 3 2 3 2 1 2 3 4 3 3 4 2 1 2 2 1 3 7 9 5 2 1 4 8 9 5 1 4 5 4 3 1 1 1 0 2 2 2 3 3 4 7 5 3 4 3 4 4 5 4 3 3 7 9 9 9 9 9 10 11 11 11 10 9 8 7 8
2 2 4 10 11 5 6 6 3 2 3 2 1 2 3 3 5 10 11 8 6 4 2 3 2 3 4 4 6 5 6 5 4 3 2 2 0 2 5 9 8 7 8 9 9 8 5 3 3 5 5 5 6 4 3 2 4 2 2 4 5 2 4 6 5 3 4 5 2 2 6 8 8 9 9 8 8 8 7 9 10 10 10 10 9 9 8 8
1 1 3 6 5 6 7 9 6 1 2 4 2 2 4 3 4 5 5 4 2 1 0 3 4 4 3 4 6 4 5 6 7 5 3 2 2 1 4 7 9 8 7 7 6 5 5 3 2 5 5 1 3 2 1 4 5 3 3 3 4 3 4 7 5 4 6 8 2 5 8 13 10 9 9 8 8 8 8 8 9 9 9 9 9 8 7 8
2 1 4 7 3 2 4 6 6 4 1 2 2 2 1 1 3 2 3 3 2 4 2 2 6 5 2 3 5 2 2 5 6 3 2 2 1 2 5 6 7 8 5 4 5 4 6 3 0 4 6 6 5 3 5 8 6 6 6 5 5 5 4 5 4 4 4 5 5 7 10 10 8 8 9 8 8 9 11 12 11 10 9 9 8 8 8 8
2 1 3 7 3 2 6 5 5 6 3 2 1 1 0 2 3 4 3 2 4 5 3 3 6 7 3 3 5 3 2 3 3 1 1 3 2 2 3 3 5 8 7 5 4 3 5 2 0 4 6 7 8 6 5 8 7 7 9 7 7 8 7 5 3 3 3 3 7 13 11 5 3 5 7 10 12 13 14 14 12 11 10 9 9 9 9 10
2 1 1 5 4 3 5 4 4 5 2 2 2 1 0 2 5 4 2 2 1 3 3 5 2 4 5 6 7 4 1 4 6 3 3 3 2 1 2 2 0 6 6 3 2 3 4 3 1 3 6 6 7 7 7 7 9 8 8 8 7 9 8 6 4 4 4 5 8 13 11 4 2 5 10 13 15 14 13 12 12 11 10 9 9 10 10 10
3 3 3 3 3 2 4 2 3 4 1 1 3 2 1 4 5 3 2 4 3 2 3 7 6 5 8 10 10 6 1 4 8 6 5 6 5 3 2 2 3 2 4 3 2 3 4 4 0 4 5 3 5 6 6 6 10 9 7 8 8 7 6 4 3 2 2 9 11 10 7 3 3 8 12 13 14 13 11 10 12 12 10 9 9 9 9 9
5 6 5 4 2 1 3 2 3 3 1 2 5 4 4 5 5 2 4 7 6 5 5 8 8 6 7 9 8 6 7 11 13 12 13 16 17 14 11 10 9 5 2 2 2 3 3 5 2 3 5 1 4 3 4 4 7 4 4 5 5 4 5 4 4 5 2 7 10 6 4 5 6 8 9 9 10 11 10 10 11 11 10 10 9 9 9 9
Wind_Direction
302 298 295 297 293 287 286 281 275 269 265 265 267 270 272 271 272 274 279 283 288 289 287 286 287 290 291 291 290 286 287 284 280 276 265 255 251 253 253 251 245 244 245 238 225 211 205 203 201 200 194 183 179 184 191 200 184 157 108 117 201 201 205 190 194 201 194 275 295 326 344 355 217 110 119 117 118 124 142 182 198 207 249 224 207 209 195 192
294 299 296 295 296 291 289 286 280 275 268 269 270 270 272 272 273 275 279 284 288 287 284 284 286 289 290 290 289 290 291 289 287 273 259 257 264 261 253 250 246 240 237 235 226 212 206 202 201 199 188 175 170 180 189 200 193 170 104 146 215 208 213 204 205 221 235 276 301 310 324 315 185 149 140 134 100 131 134 62 179 200 214 199 201 196 190 194
290 295 296 292 299 297 292 291 285 278 271 270 271 272 275 275 275 276 280 285 286 285 282 282 285 288 287 287 289 294 296 298 294 273 262 267 265 258 249 242 241 239 234 233 227 214 208 201 203 198 181 170 169 174 181 188 192 193 142 166 237 224 242 253 239 245 260 275 293 304 321 311 194 168 149 141 117 147 169 179 166 183 188 187 195 188 188 194
294 295 296 289 297 299 293 292 288 282 277 273 273 274 275 278 279 278 282 285 284 282 279 280 284 286 285 286 288 293 306 311 294 275 271 270 254 247 244 236 232 236 231 221 218 213 208 201 202 194 179 171 171 170 184 190 182 189 171 192 241 204 239 261 252 258 270 272 270 278 313 303 205 166 150 133 114 297 237 193 176 181 182 183 189 186 190 195
300 300 301 293 294 297 292 291 289 285 281 276 274 275 276 280 281 279 281 282 281 278 278 280 281 285 283 283 285 289 323 334 290 269 267 248 237 240 239 232 223 227 226 210 207 202 200 199 188 181 179 174 165 166 215 205 181 168 207 224 244 222 238 267 270 274 284 288 277 283 316 243 155 153 159 146 137 234 221 198 189 187 181 181 186 187 193 196
300 301 304 301 299 300 297 293 291 286 280 277 275 275 277 280 282 280 278 279 279 278 279 280 280 284 281 280 281 273 252 267 238 148 183 189 205 271 243 229 214 215 217 204 200 193 189 185 175 174 173 167 170 180 213 208 189 191 253 238 243 244 247 269 278 282 289 307 275 284 321 260 137 143 173 168 181 251 220 199 196 194 185 182 185 190 195 196
302 298 299 298 294 299 302 296 292 289 285 280 277 277 279 281 281 279 278 280 280 280 280 280 281 279 278 278 275 263 237 245 234 193 272 242 262 307 268 223 205 205 209 203 198 190 184 177 177 177 158 153 191 199 212 204 186 192 252 253 252 254 253 267 280 288 289 292 273 281 312 288 151 147 188 195 274 291 237 195 195 192 184 184 187 194 197 195
303 299 297 297 292 294 301 298 294 292 287 282 278 277 280 281 280 279 281 283 282 281 280 278 280 277 276 273 269 265 248 250 250 255 270 265 269 293 275 215 199 199 205 208 203 193 185 178 181 177 159 184 182 193 203 200 199 185 225 253 264 262 265 279 288 291 293 295 292 296 296 279 185 144 181 213 294 275 193 186 189 184 183 185 190 197 197 197
298 298 297 299 298 293 293 297 296 294 288 282 278 276 280 282 279 281 284 284 282 280 278 278 277 275 274 265 262 269 258 260 272 270 261 260 265 279 269 214 196 196 199 204 204 198 190 186 187 178 179 197 164 178 182 178 234 195 213 238 260 269 278 291 291 290 295 295 296 310 287 284 306 142 172 11 256 176 167 176 180 180 184 188 193 199 200 202
295 299 301 301 303 298 294 293 292 293 290 283 278 276 279 281 277 281 285 284 280 278 278 277 274 271 267 256 225 242 263 267 279 271 257 251 252 258 249 208 194 193 194 196 198 201 200 199 191 173 164 187 173 209 175 172 231 207 215 231 250 266 280 288 285 288 294 291 280 263 269 296 28 152 238 141 171 162 162 166 175 182 186 190 196 202 204 207
297 302 304 301 301 300 299 298 292 291 290 285 280 279 280 278 277 281 284 281 277 278 278 276 275 267 260 245 209 221 258 264 269 274 259 231 230 238 213 191 192 193 195 199 202 206 207 203 188 170 150 177 177 219 197 207 238 233 212 232 261 270 288 278 270 274 267 279 264 229 237 322 31 164 208 174 170 166 167 167 175 185 189 194 199 206 210 209
303 305 305 298 290 290 293 296 296 292 290 284 278 280 281 276 278 283 281 278 277 278 276 275 273 265 262 249 235 236 249 254 260 266 227 193 193 203 189 181 187 192 199 205 209 210 205 193 179 179 181 154 161 175 220 224 228 240 181 225 288 321 315 264 253 255 212 232 248 196 201 314 286 246 198 174 169 168 171 169 176 186 193 198 201 208 211 207
306 305 306 301 293 294 298 298 297 295 287 279 276 278 279 278 282 283 278 275 274 275 276 272 266 264 266 254 248 247 248 248 253 239 199 181 181 181 186 192 193 195 207 218 223 216 201 183 177 184 171 143 175 87 298 265 217 247 149 165 297 0 328 262 247 220 184 231 212 156 164 277 260 267 197 173 174 168 168 172 179 188 197 202 202 208 210 207
303 299 302 306 300 296 301 301 299 298 287 277 276 276 276 278 282 278 273 272 271 273 274 268 263 260 256 254 257 259 252 244 247 235 212 212 198 184 189 197 202 205 212 223 229 229 204 186 186 195 207 235 261 304 332 347 30 232 139 98 350 48 283 286 288 160 163 251 184 150 205 258 262 256 186 176 183 175 172 178 185 191 199 204 203 207 211 211
301 299 301 305 301 293 295 298 297 296 287 277 275 278 277 277 277 272 270 268 266 270 268 267 264 252 260 266 265 265 253 240 237 229 220 224 208 194 195 196 205 212 220 223 219 235 212 194 196 208 236 261 279 304 345 359 10 35 153 290 347 167 260 306 303 166 156 238 175 148 217 257 258 228 185 179 187 182 176 178 187 194 200 204 206 207 210 214
301 301 301 301 301 298 294 295 295 292 285 277 276 281 279 275 271 266 267 265 263 266 259 264 264 238 269 278 267 257 249 238 233 227 222 218 205 201 200 199 212 216 220 217 197 196 189 191 198 207 226 254 133 107 54 359 335 2 155 214 248 177 251 311 318 250 194 138 167 150 181 240 276 231 191 184 189 186 176 178 189 196 200 205 208 208 210 214
302 301 300 299 299 300 297 297 299 296 286 277 278 282 278 273 270 265 261 253 245 246 238 244 270 248 253 264 261 247 242 244 241 229 217 209 204 206 199 196 207 198 187 176 167 163 164 178 184 200 216 146 118 117 97 219 250 317 18 144 216 192 204 261 310 315 22 98 184 241 188 234 290 243 191 190 193 191 182 183 191 195 201 208 211 211 212 215
306 301 297 293 291 295 298 300 303 301 290 278 281 284 280 272 264 254 240 223 202 184 226 209 134 353 256 250 256 245 239 273 246 220 211 207 206 208 206 198 188 171 149 136 160 171 176 179 161 146 159 147 143 122 145 206 193 187 158 138 211 341 226 243 261 265 27 34 179 197 240 246 291 279 194 195 196 196 195 191 192 195 203 211 214 215 216 217
308 299 295 292 289 291 294 300 303 304 292 280 283 282 277 271 251 233 214 193 174 158 213 199 178 185 269 264 256 243 249 272 240 209 206 205 202 203 205 194 174 163 143 123 167 181 176 157 127 152 171 175 179 157 171 197 167 158 158 142 136 106 259 248 256 255 174 51 220 211 213 216 252 262 210 204 198 197 204 200 196 196 204 212 214 217 221 221
305 294 294 291 291 295 295 299 302 305 295 284 284 255 235 273 194 190 205 205 213 221 240 226 209 221 248 305 322 257 250 254 248 212 201 199 197 194 190 179 164 156 148 139 167 183 170 146 168 184 181 189 195 177 163 159 139 131 113 103 128 169 275 260 254 271 189 154 255 227 197 184 208 228 225 206 195 196 200 200 202 201 206 212 212 219 226 226
301 290 291 291 295 300 295 296 299 301 294 284 281 238 102 63 122 261 247 240 245 243 247 251 243 246 256 259 266 287 298 281 259 205 195 195 191 186 182 173 153 140 167 147 133 157 159 161 209 201 187 185 187 166 142 135 113 102 108 86 35 199 253 257 238 300 265 157 262 231 167 161 211 249 281 197 184 201 202 198 202 205 207 210 211 219 227 230
296 290 294 295 297 300 296 297 298 294 284 274 276 226 101 68 22 311 298 277 271 260 250 251 251 254 258 255 257 275 293 279 261 208 187 188 186 182 173 166 151 147 167 122 113 124 140 196 228 206 172 126 102 123 126 125 106 82 120 114 326 242 276 286 275 339 12 137 257 225 118 128 258 301 5 55 204 253 220 209 211 211 209 211 213 219 228 234
294 291 294 294 293 298 298 297 295 285 274 268 271 169 118 50 349 286 269 271 282 272 255 246 244 248 254 255 256 258 252 238 255 229 190 182 182 177 161 149 150 149 132 122 135 139 151 233 221 175 140 111 85 104 108 100 96 83 124 140 250 260 327 291 281 333 10 106 213 136 96 38 341 351 32 17 1 8 3 226 229 229 220 220 220 224 237 243
292 291 295 300 301 301 299 298 294 277 268 268 230 149 110 16 355 280 252 249 282 275 261 251 243 244 248 253 251 238 230 226 236 226 192 181 174 167 162 150 139 137 143 144 135 141 191 227 169 139 141 132 114 121 120 117 131 341 155 154 197 232 215 227 278 330 349 32 103 111 70 12 354 5 6 357 5 27 29 50 234 247 231 234 235 233 246 244
286 290 299 304 303 301 301 302 290 263 251 207 147 150 55 12 353 310 253 263 281 272 267 247 235 242 242 242 237 222 225 230 226 211 190 186 176 161 158 159 151 149 153 137 125 150 216 206 139 132 160 144 120 142 164 149 153 274 228 184 192 202 214 248 314 6 28 8 18 96 75 352 323 1 10 350 6 22 23 34 20 335 240 236 238 233 239 235
280 287 300 300 300 306 308 302 276 243 210 164 155 140 27 356 334 249 170 355 295 243 222 202 212 233 222 212 211 201 206 245 223 200 188 191 184 166 151 153 144 151 149 135 135 165 207 172 139 135 156 150 131 161 199 152 130 245 235 196 192 180 182 252 278 60 85 244 304 88 111 161 312 354 359 339 5 21 21 24 8 355 325 255 243 236 229 221
276 287 298 297 302 306 298 278 239 212 176 163 166 130 352 314 232 170 129 10 285 206 148 173 188 194 198 197 185 172 130 190 178 186 190 191 185 171 161 161 122 146 149 118 158 229 156 155 145 130 135 141 144 182 208 149 126 224 234 179 171 165 180 215 186 157 211 229 330 22 106 123 10 329 328 325 359 22 21 18 5 355 342 305 246 242 227 214
280 287 294 295 298 294 277 257 236 205 166 161 183 190 305 239 167 155 109 9 255 169 137 176 172 172 189 185 175 170 164 155 149 187 192 186 183 167 155 178 142 145 155 122 170 232 153 165 176 155 143 161 181 199 190 151 140 239 219 155 159 161 173 175 137 150 325 91 279 321 46 104 197 279 320 344 22 26 13 7 5 1 355 354 197 213 204 205
276 279 287 291 291 286 271 257 230 180 171 184 196 196 173 153 161 144 79 296 224 191 135 160 157 168 161 160 178 189 194 157 150 178 178 179 186 173 154 178 151 134 160 147 180 209 165 189 187 160 154 196 200 194 169 159 184 224 156 105 98 89 89 96 109 125 39 63 228 282 14 104 221 296 342 2 29 19 354 358 6 7 14 28 47 80 125 157
272 276 283 287 287 283 274 264 199 166 184 204 193 187 150 148 150 104 113 243 240 235 91 156 168 167 151 146 187 208 221 159 122 145 161 169 177 170 146 158 144 116 134 142 180 207 336 190 181 164 181 194 185 175 169 173 178 146 118 74 60 51 44 48 52 89 75 10 254 266 6 109 162 305 355 9 28 6 336 10 17 13 32 46 51 62 83 101
277 279 279 279 277 272 270 257 179 176 190 205 201 174 154 144 101 123 190 263 275 247 77 162 189 158 157 157 173 195 220 352 126 137 149 159 161 154 125 134 122 92 114 123 185 282 347 88 177 206 198 169 131 136 165 172 142 101 105 99 84 24 21 30 352 48 95 244 267 278 345 99 135 245 344 30 48 43 19 32 37 40 53 63 67 68 74 87
285 277 273 271 267 259 246 192 164 177 189 204 199 160 145 125 5 200 240 325 329 247 277 175 189 167 169 168 159 176 173 94 151 142 144 151 151 160 143 149 148 115 172 202 163 312 308 228 257 266 204 167 125 101 72 92 112 98 99 112 110 52 39 46 301 60 151 232 279 308 330 78 107 221 337 29 45 41 36 41 42 52 60 64 72 74 76 86
280 274 272 268 266 256 218 174 169 175 186 199 190 155 120 90 222 219 254 299 15 282 295 261 190 168 160 165 165 169 151 139 182 148 144 146 141 175 174 136 156 140 168 195 157 154 237 275 280 300 225 183 145 134 136 137 154 146 138 136 136 131 130 178 250 106 213 235 303 325 349 77 174 159 59 32 41 39 42 47 47 53 57 62 68 71 70 69
275 276 276 266 265 258 205 186 184 180 191 191 152 107 109 152 231 223 235 252 310 317 305 347 113 154 159 176 170 157 145 153 168 135 134 144 144 181 193 20 175 146 111 151 166 161 158 248 228 186 205 178 161 170 170 151 149 166 160 135 144 158 148 174 197 164 176 187 322 334 20 145 215 117 84 45 34 47 53 46 47 56 58 63 64 62 59 52
279 280 280 269 258 242 195 191 191 184 188 177 105 91 161 203 242 224 214 256 332 325 313 333 333 163 171 181 161 164 162 138 156 133 136 158 157 179 175 188 203 155 114 149 195 148 139 227 243 233 152 160 171 187 151 124 121 184 137 102 146 185 140 126 176 165 152 128 19 351 27 237 255 130 99 72 40 53 65 50 44 52 56 63 61 55 52 48
290 285 280 269 234 209 195 191 188 184 183 158 100 156 208 217 233 212 249 304 316 322 328 326 304 159 160 138 159 185 185 114 153 141 136 166 162 171 176 196 195 160 134 149 189 129 116 255 275 301 176 188 177 170 156 150 153 122 120 147 206 174 117 115 164 59 93 116 50 336 138 117 315 245 170 138 135 112 90 66 57 62 63 64 61 56 53 50
307 299 280 250 202 197 195 190 185 181 176 155 151 207 229 246 241 233 318 323 317 332 359 323 273 145 157 147 164 187 187 115 155 153 151 174 186 170 177 217 184 165 169 156 181 197 143 253 289 154 193 234 168 136 108 121 138 123 152 180 177 107 90 106 126 25 55 116 261 317 151 156 165 208 185 174 172 151 128 104 85 77 73 68 62 61 57 53
328 320 289 234 202 198 190 185 182 177 170 169 213 225 227 236 274 306 315 323 320 331 36 264 243 136 157 165 170 183 177 170 175 149 144 181 249 166 160 196 180 178 191 161 112 229 136 149 292 260 174 283 110 115 72 26 75 120 153 149 121 123 131 95 125 136 117 126 151 340 328 223 195 208 192 181 170 150 140 125 107 81 72 70 64 61 60 57
336 324 305 251 199 195 182 175 176 174 166 185 208 216 240 251 299 300 296 312 314 290 285 252 242 147 168 168 158 169 171 174 172 142 132 160 215 176 169 193 177 181 189 167 134 207 117 106 278 275 222 22 41 90 141 129 22 42 99 112 80 128 155 155 141 148 144 144 150 102 313 258 222 217 191 173 160 147 141 133 114 81 68 66 62 56 56 58
334 307 314 350 175 180 169 165 169 173 167 184 196 220 286 300 302 287 285 296 289 227 244 256 254 184 190 166 150 158 155 153 151 142 126 119 121 228 238 171 139 164 177 175 170 143 68 101 191 293 331 55 110 186 179 170 123 69 95 128 88 78 117 135 94 85 128 140 149 137 207 259 244 219 180 158 149 139 132 122 92 76 70 66 63 59 56 55
303 289 312 138 159 163 158 156 163 179 179 209 215 226 289 296 283 284 288 287 254 236 236 251 274 235 179 142 152 152 122 116 121 118 123 111 116 158 277 39 132 143 138 163 185 166 109 138 163 305 359 58 236 260 209 179 164 139 148 171 158 122 115 118 104 330 97 121 158 154 183 260 257 226 164 149 146 136 123 111 85 74 73 70 67 66 60 53
257 277 47 134 157 158 153 150 166 178 161 209 240 253 284 286 273 281 292 288 248 239 232 236 253 230 168 141 159 133 102 93 79 113 147 152 152 174 291 333 156 149 129 140 201 183 147 111 107 133 334 186 261 292 244 155 127 103 118 162 141 123 123 125 164 218 93 85 142 123 123 266 266 252 169 150 140 126 120 117 104 87 79 77 73 70 68 59
249 200 77 141 159 158 149 115 207 181 205 269 279 287 271 268 275 281 291 290 252 256 244 232 231 163 126 121 127 121 111 86 52 110 144 120 136 224 317 20 140 137 112 124 195 168 131 94 95 316 310 312 307 340 13 52 82 79 46 51 101 128 136 139 166 168 126 145 150 87 75 264 271 242 157 139 123 109 109 116 114 100 86 84 80 70 66 60
253 64 81 153 160 158 151 148 149 184 243 276 301 297 271 258 253 257 269 270 246 285 303 276 252 94 56 74 92 117 131 101 49 66 116 111 139 328 5 68 138 151 116 175 181 164 167 141 101 95 19 357 355 360 358 5 49 86 44 12 62 111 106 115 126 84 102 181 158 117 172 252 237 139 133 127 115 104 102 108 111 103 92 90 87 72 59 49
235 70 94 158 168 174 319 219 185 178 203 240 298 276 269 265 249 240 245 253 250 249 285 293 291 63 38 63 77 57 69 94 105 137 105 83 74 337 21 56 97 127 110 153 151 142 144 135 115 123 136 154 166 268 231 168 52 68 69 27 21 98 115 131 121 87 131 188 145 131 174 227 156 131 127 123 115 107 103 102 100 95 90 91 90 79 59 42
237 84 97 162 188 249 285 271 269 162 168 179 274 263 228 246 270 251 240 247 255 235 227 302 328 50 34 53 78 45 28 52 86 115 123 94 100 312 23 58 68 76 92 98 105 118 109 61 94 119 133 171 188 215 230 150 105 90 61 27 6 36 107 106 107 139 168 151 138 196 166 151 152 146 140 139 125 117 113 104 99 93 88 90 87 78 64 50
273 125 142 158 201 254 272 279 271 216 162 168 174 273 227 226 296 287 243 233 269 350 350 334 10 48 37 64 90 55 20 45 62 77 86 92 151 308 24 55 55 57 90 84 60 87 96 57 57 85 76 91 177 179 63 73 92 93 75 34 1 5 80 100 129 195 159 128 170 244 169 151 157 157 150 146 130 125 123 109 101 95 92 94 90 82 74 64
200 157 174 167 172 216 228 258 238 207 220 175 176 290 260 288 320 292 255 261 1 16 38 16 5 5 15 95 108 96 40 52 44 41 68 51 67 17 16 29 36 44 80 65 26 86 107 75 27 93 67 33 26 50 82 88 87 68 63 59 34 31 74 113 158 209 161 145 187 191 165 152 148 145 142 134 123 123 123 117 113 109 102 100 94 84 76 67
171 144 198 190 208 212 191 203 188 182 222 244 231 272 12 324 291 253 267 332 8 4 53 70 343 339 12 77 104 108 124 112 75 349 132 64 52 60 48 32 18 32 59 59 27 79 102 75 117 108 78 38 17 12 65 97 99 60 44 48 60 67 74 88 124 157 129 143 156 145 136 111 90 118 119 114 114 115 115 116 118 113 103 96 89 77 67 62
160 131 207 205 247 252 194 190 153 154 217 257 243 267 169 246 260 255 303 70 135 326 45 95 33 12 50 63 77 72 246 160 130 149 172 126 98 109 108 164 290 21 34 46 11 25 79 124 199 93 73 24 7 22 46 83 100 76 38 22 44 69 67 55 75 103 90 89 112 122 120 89 58 103 101 107 114 110 104 105 104 101 97 94 87 71 61 60
230 258 281 245 252 221 180 179 125 130 155 255 225 256 226 232 243 221 44 47 108 157 123 129 118 68 60 64 69 70 76 120 109 121 149 130 115 118 110 144 161 58 27 39 19 7 70 114 117 69 80 343 340 28 35 61 86 76 40 11 16 49 69 50 36 27 113 122 118 120 131 146 145 116 100 98 103 99 93 93 91 90 91 91 85 72 62 60
260 261 268 236 223 219 182 147 115 145 187 179 194 228 240 248 262 157 82 26 37 81 122 140 122 81 64 70 75 92 102 95 95 99 104 97 88 85 82 77 77 82 101 107 50 16 93 124 123 83 96 288 305 0 8 42 78 64 5 348 349 34 73 65 27 357 14 127 133 147 150 131 126 121 105 92 91 89 85 86 89 92 95 91 86 78 69 63
Height
1490 1489 1488 1487 1487 1486 1485 1485 1485 1484 1484 1484 1483 1483 1483 1483 1483 1483 1483 1483 1484 1483 1483 1483 1483 1483 1483 1483 1482 1481 1481 1481 1480 1481 1478 1476 1479 1481 1482 1483 1484 1484 1485 1485 1486 1487 1488 1490 1491 1492 1493 1495 1496 1498 1499 1501 1502 1503 1506 1510 1510 1509 1506 1500 1498 1496 1494 1492 1489 1488 1489 1491 1490 1488 1488 1489 1489 1489 1490 1491 1491 1492 1492 1492 1493 1493 1494 1496
1489 1488 1487 1487 1486 1485 1484 1484 1484 1483 1483 1483 1483 1482 1482 1482 1482 1482 1482 1483 1483 1482 1482 1482 1482 1482 1482 1481 1481 1480 1480 1479 1479 1477 1474 1475 1478 1479 1480 1482 1482 1483 1484 1484 1484 1486 1487 1489 1491 1492 1493 1495 1496 1497 1499 1500 1501 1503 1506 1509 1507 1504 1499 1495 1495 1494 1493 1492 1490 1488 1488 1490 1490 1488 1488 1489 1492 1491 1491 1492 1492 1492 1492 1492 1493 1494 1495 1496
1488 1487 1487 1486 1485 1484 1483 1483 1483 1482 1482 1482 1481 1481 1481 1481 1481 1481 1481 1482 1481 1481 1481 1481 1481 1481 1481 1480 1480 1480 1479 1478 1476 1473 1471 1474 1476 1476 1478 1479 1480 1481 1482 1483 1484 1486 1487 1489 1490 1492 1493 1495 1496 1497 1498 1499 1500 1501 1505 1507 1502 1498 1496 1493 1494 1493 1492 1492 1490 1489 1488 1489 1489 1488 1487 1489 1492 1492 1492 1492 1491 1491 1491 1491 1492 1493 1494 1496
1487 1486 1485 1484 1484 1483 1482 1482 1481 1481 1481 1481 1480 1480 1480 1480 1481 1481 1481 1481 1480 1480 1480 1480 1480 1480 1480 1479 1479 1479 1479 1477 1473 1470 1470 1472 1473 1474 1475 1476 1478 1479 1481 1483 1484 1485 1487 1489 1490 1491 1493 1495 1496 1497 1498 1498 1499 1500 1502 1502 1498 1496 1496 1492 1492 1491 1491 1492 1491 1490 1490 1489 1488 1487 1487 1488 1492 1493 1491 1489 1489 1489 1489 1490 1492 1493 1494 1495
1486 1485 1484 1483 1483 1482 1481 1480 1480 1480 1480 1479 1479 1479 1479 1479 1479 1480 1480 1479 1479 1479 1478 1479 1478 1479 1479 1478 1479 1479 1480 1476 1469 1467 1468 1469 1470 1471 1472 1474 1476 1477 1479 1481 1482 1484 1486 1488 1489 1491 1493 1494 1495 1496 1496 1496 1498 1499 1499 1498 1496 1496 1495 1491 1491 1491 1491 1491 1491 1490 1490 1489 1486 1486 1487 1487 1490 1491 1489 1488 1489 1489 1490 1490 1491 1493 1494 1495
1485 1484 1483 1482 1482 1481 1480 1479 1479 1479 1478 1478 1478 1478 1478 1478 1478 1479 1479 1478 1478 1478 1477 1477 1477 1478 1477 1477 1478 1478 1479 1474 1466 1466 1468 1468 1469 1470 1470 1471 1473 1476 1478 1479 1481 1482 1484 1486 1488 1490 1491 1493 1494 1494 1494 1495 1496 1498 1498 1496 1495 1495 1493 1490 1490 1490 1491 1492 1491 1490 1490 1489 1487 1487 1487 1486 1488 1488 1488 1489 1489 1490 1491 1492 1492 1493 1494 1495
1484 1483 1482 1481 1480 1480 1479 1478 1478 1477 1477 1477 1477 1476 1476 1477 1477 1477 1477 1477 1477 1476 1476 1476 1476 1476 1476 1477 1476 1477 1478 1470 1465 1467 1468 1468 1469 1469 1469 1470 1471 1474 1476 1477 1479 1481 1482 1485 1487 1488 1490 1492 1493 1492 1493 1494 1495 1497 1497 1495 1494 1493 1491 1489 1489 1488 1489 1490 1490 1490 1489 1489 1488 1487 1488 1488 1487 1487 1488 1489 1489 1490 1491 1492 1493 1494 1495 1496
1483 1482 1481 1480 1479 1478 1478 1477 1476 1476 1476 1476 1475 1475 1475 1476 1476 1476 1476 1476 1476 1476 1475 1475 1475 1475 1475 1475 1475 1476 1474 1466 1464 1468 1468 1468 1468 1468 1468 1468 1470 1472 1474 1476 1477 1479 1481 1483 1485 1487 1489 1491 1491 1491 1492 1494 1495 1495 1495 1494 1493 1492 1489 1489 1488 1486 1487 1487 1488 1489 1488 1488 1489 1488 1488 1488 1488 1487 1488 1489 1490 1491 1492 1493 1494 1494 1495 1496
1481 1480 1479 1479 1478 1477 1477 1476 1475 1475 1474 1474 1474 1474 1474 1474 1475 1475 1475 1475 1475 1474 1474 1474 1474 1474 1474 1474 1475 1474 1468 1463 1464 1466 1466 1466 1467 1467 1467 1467 1469 1471 1473 1476 1478 1479 1480 1482 1483 1485 1487 1489 1489 1490 1491 1493 1494 1492 1492 1493 1492 1490 1489 1489 1487 1485 1486 1485 1486 1487 1486 1486 1488 1488 1488 1488 1488 1488 1488 1489 1490 1492 1492 1493 1494 1495 1496 1497
1480 1479 1478 1477 1476 1476 1475 1474 1474 1473 1473 1473 1473 1473 1473 1473 1473 1474 1473 1474 1473 1473 1473 1473 1473 1473 1473 1472 1474 1472 1464 1462 1464 1464 1464 1465 1466 1467 1467 1467 1468 1470 1473 1476 1477 1478 1479 1479 1482 1484 1486 1488 1489 1489 1490 1492 1491 1489 1490 1492 1491 1490 1489 1489 1487 1485 1486 1485 1485 1487 1486 1486 1486 1487 1488 1487 1487 1488 1489 1490 1491 1492 1493 1494 1495 1495 1496 1497
1478 1477 1477 1476 1475 1475 1474 1473 1472 1472 1472 1471 1472 1471 1472 1472 1472 1472 1472 1472 1472 1472 1472 1472 1472 1472 1471 1472 1473 1468 1462 1462 1463 1462 1463 1464 1465 1467 1467 1467 1469 1471 1473 1475 1476 1477 1478 1479 1482 1485 1486 1487 1488 1489 1489 1489 1489 1488 1490 1490 1490 1489 1489 1488 1486 1485 1486 1485 1483 1485 1487 1487 1487 1487 1487 1487 1487 1489 1489 1490 1491 1492 1493 1494 1495 1496 1496 1497
1477 1476 1475 1474 1474 1473 1472 1472 1471 1470 1470 1470 1470 1470 1471 1471 1471 1471 1471 1471 1470 1470 1470 1471 1471 1470 1470 1470 1467 1462 1461 1462 1462 1462 1463 1463 1465 1466 1467 1468 1469 1471 1473 1475 1476 1477 1478 1480 1483 1484 1485 1486 1487 1488 1488 1487 1488 1488 1489 1490 1490 1489 1488 1486 1484 1484 1485 1485 1482 1485 1490 1490 1488 1487 1487 1486 1488 1489 1490 1491 1492 1493 1493 1494 1495 1496 1496 1498
1476 1475 1474 1473 1472 1472 1471 1470 1470 1469 1468 1468 1468 1469 1469 1469 1469 1470 1469 1469 1469 1469 1469 1470 1469 1469 1470 1467 1459 1458 1461 1462 1461 1462 1462 1463 1464 1465 1467 1469 1470 1471 1473 1474 1476 1477 1479 1481 1482 1484 1484 1485 1486 1487 1487 1486 1487 1487 1489 1490 1490 1491 1489 1484 1483 1483 1484 1484 1481 1485 1495 1493 1488 1487 1486 1487 1488 1489 1491 1492 1492 1493 1493 1494 1495 1496 1496 1497
1475 1474 1472 1471 1470 1470 1470 1469 1468 1467 1467 1467 1467 1467 1468 1468 1468 1468 1468 1468 1467 1468 1468 1469 1468 1468 1468 1461 1455 1457 1460 1460 1459 1460 1461 1462 1463 1464 1466 1468 1469 1470 1471 1473 1475 1477 1479 1480 1482 1483 1484 1485 1485 1486 1487 1487 1487 1488 1489 1491 1494 1496 1491 1483 1483 1483 1482 1483 1481 1485 1494 1491 1487 1487 1486 1487 1487 1487 1489 1491 1492 1492 1493 1494 1495 1495 1496 1497
1473 1472 1471 1470 1469 1469 1468 1468 1467 1465 1465 1465 1465 1466 1466 1466 1466 1466 1466 1466 1466 1467 1467 1467 1467 1467 1466 1458 1453 1456 1456 1457 1456 1457 1460 1461 1462 1464 1464 1466 1468 1469 1470 1472 1474 1476 1478 1479 1481 1482 1483 1484 1485 1486 1488 1488 1489 1490 1492 1495 1498 1497 1491 1484 1482 1483 1482 1482 1481 1485 1492 1491 1488 1486 1484 1486 1486 1486 1487 1490 1492 1492 1492 1494 1494 1495 1496 1496
1472 1471 1470 1469 1468 1467 1467 1466 1465 1464 1463 1463 1464 1464 1464 1465 1464 1464 1465 1465 1466 1466 1466 1467 1465 1467 1466 1456 1452 1453 1453 1453 1454 1456 1459 1460 1462 1463 1464 1466 1467 1468 1469 1471 1473 1475 1477 1479 1480 1482 1483 1483 1486 1487 1489 1491 1492 1493 1493 1495 1497 1495 1492 1487 1482 1481 1481 1482 1482 1484 1488 1489 1486 1484 1484 1486 1486 1487 1488 1490 1492 1492 1492 1493 1493 1495 1495 1496
1470 1469 1468 1468 1467 1466 1465 1464 1463 1462 1462 1462 1463 1463 1463 1463 1462 1463 1463 1464 1464 1464 1465 1465 1465 1467 1462 1452 1451 1451 1451 1451 1452 1455 1457 1459 1461 1462 1464 1465 1466 1467 1468 1470 1473 1475 1477 1478 1480 1481 1482 1484 1486 1486 1492 1497 1496 1495 1495 1494 1496 1496 1495 1491 1484 1482 1481 1482 1483 1484 1486 1487 1486 1484 1485 1485 1486 1487 1488 1490 1491 1492 1493 1493 1493 1495 1495 1495
1468 1468 1467 1466 1466 1465 1464 1463 1462 1461 1461 1461 1461 1461 1461 1461 1461 1461 1461 1462 1463 1465 1466 1465 1466 1466 1455 1448 1449 1450 1450 1451 1451 1453 1455 1457 1459 1461 1463 1464 1464 1466 1467 1469 1472 1474 1477 1478 1478 1481 1482 1484 1485 1486 1493 1498 1494 1494 1494 1493 1495 1496 1495 1492 1486 1482 1481 1482 1484 1485 1486 1487 1486 1485 1485 1484 1486 1488 1489 1490 1492 1492 1493 1493 1494 1495 1495 1495
1467 1466 1466 1465 1464 1463 1463 1462 1461 1460 1459 1459 1460 1460 1460 1460 1460 1460 1460 1461 1461 1462 1462 1459 1460 1458 1448 1445 1448 1448 1449 1450 1450 1451 1452 1455 1457 1460 1462 1463 1464 1465 1466 1469 1472 1474 1476 1477 1479 1481 1483 1484 1484 1484 1488 1490 1488 1489 1491 1492 1494 1495 1494 1491 1486 1482 1482 1483 1484 1485 1485 1486 1486 1486 1485 1485 1486 1488 1490 1491 1493 1494 1494 1493 1495 1496 1495 1494
1465 1465 1465 1464 1463 1462 1461 1461 1460 1459 1458 1458 1459 1459 1459 1460 1460 1460 1460 1459 1456 1455 1454 1452 1452 1450 1446 1447 1447 1447 1448 1448 1449 1449 1450 1453 1455 1458 1460 1462 1463 1464 1465 1468 1471 1473 1474 1477 1480 1480 1481 1481 1481 1482 1483 1486 1487 1488 1490 1492 1495 1496 1492 1488 1485 1482 1482 1484 1485 1484 1484 1487 1486 1485 1485 1486 1487 1488 1489 1491 1492 1493 1494 1494 1495 1496 1495 1494
1464 1464 1463 1462 1461 1460 1460 1459 1458 1458 1457 1457 1458 1459 1459 1460 1460 1460 1459 1456 1451 1451 1451 1449 1450 1447 1445 1446 1446 1447 1449 1448 1447 1448 1449 1451 1453 1456 1459 1461 1462 1464 1465 1466 1469 1471 1473 1478 1480 1478 1478 1478 1479 1481 1483 1485 1487 1488 1490 1491 1493 1495 1491 1484 1483 1483 1482 1483 1485 1484 1485 1489 1487 1485 1487 1487 1488 1489 1488 1490 1491 1492 1493 1494 1494 1495 1494 1494
1463 1462 1461 1461 1460 1459 1458 1457 1457 1456 1456 1456 1457 1458 1459 1460 1460 1460 1459 1455 1449 1448 1448 1447 1448 1445 1441 1444 1446 1448 1451 1450 1447 1446 1448 1449 1451 1454 1457 1460 1462 1463 1464 1465 1469 1472 1476 1478 1477 1476 1477 1478 1481 1482 1483 1484 1487 1488 1491 1491 1491 1493 1490 1484 1482 1484 1483 1482 1483 1484 1486 1489 1490 1489 1489 1490 1490 1490 1490 1491 1492 1493 1494 1494 1494 1495 1495 1497
1461 1460 1460 1459 1458 1457 1456 1455 1455 1455 1455 1456 1457 1458 1459 1459 1459 1458 1459 1456 1448 1444 1443 1443 1444 1441 1439 1441 1444 1447 1449 1449 1447 1445 1446 1447 1449 1452 1454 1458 1460 1462 1464 1465 1468 1474 1478 1477 1474 1476 1477 1478 1481 1482 1482 1485 1488 1489 1490 1491 1491 1492 1491 1486 1481 1482 1483 1483 1483 1484 1484 1489 1494 1492 1490 1491 1492 1491 1492 1493 1494 1495 1496 1496 1497 1498 1498 1500
1459 1459 1458 1457 1456 1456 1454 1454 1454 1454 1454 1455 1456 1457 1458 1458 1458 1458 1457 1455 1448 1440 1438 1438 1439 1437 1436 1438 1442 1445 1445 1445 1445 1444 1444 1446 1448 1450 1453 1456 1459 1462 1464 1465 1467 1472 1475 1472 1471 1475 1476 1476 1480 1483 1483 1484 1488 1491 1490 1489 1489 1488 1488 1487 1483 1482 1482 1484 1485 1483 1484 1493 1499 1496 1493 1493 1492 1492 1492 1493 1494 1496 1497 1497 1499 1500 1500 1501
1458 1458 1457 1456 1455 1454 1453 1453 1452 1453 1453 1454 1456 1456 1457 1457 1457 1457 1457 1454 1447 1439 1435 1435 1435 1432 1432 1437 1440 1441 1443 1442 1441 1441 1442 1443 1445 1448 1451 1453 1456 1461 1464 1466 1469 1470 1471 1470 1470 1474 1475 1476 1479 1481 1482 1482 1486 1490 1487 1485 1484 1484 1486 1486 1486 1485 1484 1485 1485 1483 1491 1505 1504 1498 1498 1497 1495 1496 1495 1495 1495 1496 1496 1497 1498 1499 1500 1500
1456 1456 1455 1455 1454 1452 1452 1452 1451 1452 1452 1453 1455 1455 1456 1456 1456 1457 1456 1455 1447 1436 1432 1432 1431 1428 1428 1433 1435 1439 1444 1440 1435 1439 1441 1442 1444 1445 1449 1452 1453 1459 1463 1465 1469 1469 1468 1469 1469 1472 1474 1476 1478 1480 1481 1481 1486 1489 1483 1480 1481 1483 1486 1485 1485 1487 1486 1486 1487 1484 1492 1508 1509 1502 1502 1503 1501 1501 1498 1497 1497 1496 1496 1496 1497 1498 1499 1500
1455 1455 1454 1453 1452 1451 1452 1451 1451 1451 1451 1453 1453 1454 1456 1455 1456 1456 1456 1458 1446 1429 1427 1430 1428 1425 1425 1428 1430 1437 1442 1435 1432 1437 1438 1441 1444 1444 1448 1451 1452 1456 1459 1463 1470 1468 1466 1469 1470 1471 1473 1476 1478 1479 1479 1480 1485 1485 1479 1477 1480 1482 1484 1485 1484 1485 1485 1484 1486 1485 1485 1499 1510 1507 1506 1506 1503 1503 1501 1501 1500 1498 1497 1496 1497 1498 1499 1500
1453 1453 1452 1452 1451 1450 1450 1449 1450 1450 1451 1452 1452 1454 1455 1454 1456 1455 1458 1459 1439 1420 1422 1426 1424 1425 1425 1427 1429 1432 1433 1429 1431 1436 1436 1439 1443 1443 1447 1450 1450 1454 1454 1461 1470 1467 1463 1467 1468 1469 1473 1476 1476 1475 1476 1477 1480 1479 1476 1478 1480 1480 1481 1483 1483 1484 1487 1487 1485 1485 1484 1492 1509 1512 1509 1507 1505 1505 1505 1504 1502 1500 1499 1498 1498 1499 1500 1501
1451 1451 1451 1450 1449 1449 1448 1448 1448 1449 1450 1451 1452 1453 1452 1454 1456 1455 1461 1457 1430 1416 1421 1421 1422 1425 1425 1428 1430 1428 1428 1428 1429 1433 1435 1439 1441 1442 1446 1448 1449 1454 1454 1457 1463 1463 1461 1463 1463 1465 1470 1471 1471 1470 1472 1475 1476 1475 1477 1480 1479 1482 1485 1486 1486 1482 1486 1490 1487 1487 1488 1491 1507 1516 1513 1510 1509 1509 1507 1504 1504 1503 1501 1500 1500 1500 1501 1502
1449 1449 1449 1448 1447 1447 1447 1447 1448 1448 1449 1450 1451 1452 1451 1455 1455 1459 1466 1451 1424 1418 1421 1420 1422 1423 1424 1428 1430 1429 1428 1428 1429 1431 1435 1438 1440 1442 1444 1447 1449 1453 1456 1457 1460 1459 1459 1460 1460 1462 1464 1464 1465 1468 1470 1471 1473 1473 1476 1478 1480 1484 1485 1487 1489 1483 1488 1495 1490 1492 1494 1489 1501 1516 1515 1512 1510 1510 1508 1506 1505 1504 1503 1502 1502 1502 1502 1503
1447 1447 1447 1446 1446 1446 1446 1446 1447 1447 1449 1449 1450 1450 1451 1454 1456 1462 1459 1436 1421 1422 1421 1421 1423 1421 1422 1425 1427 1429 1429 1429 1429 1430 1435 1437 1440 1442 1444 1448 1451 1455 1460 1461 1461 1461 1460 1461 1461 1459 1458 1460 1462 1467 1470 1470 1472 1473 1474 1477 1482 1488 1488 1489 1492 1488 1496 1501 1494 1498 1498 1489 1499 1514 1515 1511 1509 1508 1507 1507 1506 1505 1505 1504 1503 1504 1504 1504
1445 1445 1445 1444 1444 1444 1445 1445 1446 1447 1448 1448 1449 1449 1450 1456 1460 1459 1446 1427 1425 1426 1419 1421 1422 1420 1422 1422 1423 1427 1427 1430 1430 1429 1434 1437 1440 1442 1443 1447 1450 1458 1466 1465 1464 1464 1462 1460 1459 1457 1456 1457 1460 1467 1472 1473 1473 1474 1475 1479 1487 1496 1498 1498 1500 1500 1501 1500 1498 1504 1500 1494 1506 1515 1512 1510 1509 1508 1507 1507 1507 1507 1506 1505 1505 1506 1506 1506
1443 1442 1442 1442 1442 1442 1444 1444 1445 1446 1447 1447 1448 1447 1450 1459 1458 1449 1439 1432 1429 1425 1419 1419 1418 1418 1422 1422 1424 1425 1426 1429 1430 1430 1432 1435 1441 1443 1443 1445 1445 1452 1461 1463 1464 1465 1463 1460 1457 1456 1456 1454 1456 1464 1471 1474 1474 1474 1476 1479 1487 1498 1504 1508 1514 1514 1505 1499 1502 1505 1498 1502 1514 1514 1511 1511 1509 1508 1508 1507 1508 1508 1508 1507 1507 1507 1507 1508
1441 1440 1439 1440 1440 1441 1443 1444 1444 1445 1446 1447 1448 1448 1453 1458 1450 1438 1437 1434 1428 1424 1422 1420 1418 1419 1421 1422 1422 1423 1426 1429 1428 1430 1433 1436 1442 1445 1445 1446 1445 1446 1454 1461 1464 1463 1465 1464 1456 1453 1453 1450 1453 1456 1459 1464 1470 1472 1471 1474 1481 1488 1493 1502 1507 1505 1501 1502 1504 1503 1501 1508 1515 1513 1511 1511 1509 1509 1508 1508 1509 1509 1509 1508 1507 1508 1508 1508
1438 1438 1438 1438 1439 1440 1441 1442 1443 1444 1446 1446 1447 1451 1453 1452 1443 1435 1435 1432 1428 1427 1424 1420 1420 1421 1421 1421 1421 1420 1423 1428 1429 1431 1434 1437 1441 1444 1444 1445 1445 1445 1449 1458 1463 1461 1464 1461 1448 1447 1449 1447 1449 1450 1451 1458 1468 1472 1471 1474 1479 1476 1478 1494 1503 1499 1499 1504 1507 1509 1513 1515 1514 1512 1511 1510 1510 1510 1510 1510 1511 1510 1510 1509 1508 1509 1509 1509
1437 1436 1436 1436 1437 1439 1439 1440 1442 1443 1445 1446 1448 1451 1449 1443 1438 1435 1434 1431 1429 1429 1428 1424 1419 1421 1424 1422 1422 1422 1420 1424 1429 1431 1435 1438 1438 1441 1442 1441 1442 1443 1444 1452 1458 1461 1463 1457 1446 1446 1447 1445 1446 1447 1448 1453 1461 1471 1473 1474 1476 1471 1472 1488 1504 1508 1503 1503 1514 1521 1520 1518 1516 1513 1511 1511 1512 1512 1511 1512 1513 1512 1511 1510 1509 1510 1510 1510
1435 1435 1434 1435 1436 1436 1437 1439 1441 1443 1444 1445 1447 1447 1443 1439 1435 1434 1432 1431 1430 1429 1431 1431 1420 1418 1423 1423 1422 1423 1420 1424 1428 1430 1436 1439 1438 1439 1440 1438 1439 1440 1440 1445 1451 1455 1457 1453 1447 1446 1445 1444 1445 1446 1448 1449 1453 1465 1470 1468 1471 1473 1474 1479 1494 1506 1504 1505 1520 1525 1518 1517 1519 1515 1511 1512 1513 1512 1513 1513 1514 1514 1512 1511 1511 1511 1512 1512
1435 1434 1433 1433 1434 1434 1436 1438 1440 1442 1444 1445 1445 1443 1440 1437 1433 1432 1432 1431 1431 1429 1432 1433 1421 1414 1418 1421 1422 1422 1420 1424 1428 1430 1435 1438 1437 1436 1437 1437 1437 1439 1439 1440 1445 1450 1452 1452 1448 1446 1445 1445 1444 1446 1452 1453 1451 1455 1458 1460 1466 1473 1478 1481 1490 1499 1502 1512 1526 1524 1519 1519 1517 1513 1511 1511 1512 1512 1513 1513 1514 1514 1512 1512 1513 1513 1513 1513
1435 1434 1433 1432 1432 1434 1435 1438 1440 1442 1443 1445 1445 1442 1438 1436 1433 1431 1431 1431 1431 1431 1433 1430 1419 1414 1415 1416 1420 1421 1420 1423 1428 1431 1434 1436 1436 1434 1434 1435 1435 1438 1438 1438 1443 1448 1450 1454 1451 1446 1445 1445 1445 1448 1455 1457 1455 1453 1456 1460 1463 1468 1474 1479 1486 1489 1494 1512 1527 1526 1523 1519 1511 1509 1509 1509 1511 1511 1512 1513 1513 1513 1513 1513 1513 1513 1513 1513
1435 1434 1433 1431 1432 1434 1435 1438 1440 1442 1443 1443 1443 1441 1437 1436 1434 1431 1430 1431 1430 1430 1431 1425 1417 1414 1414 1413 1417 1418 1419 1423 1427 1430 1432 1433 1435 1435 1434 1433 1434 1437 1438 1438 1442 1446 1449 1454 1453 1448 1446 1448 1450 1451 1453 1455 1455 1457 1461 1464 1466 1470 1473 1476 1485 1489 1488 1501 1519 1526 1525 1516 1506 1505 1507 1507 1510 1510 1510 1512 1512 1513 1513 1513 1513 1513 1513 1512
1435 1434 1433 1432 1433 1434 1436 1439 1441 1442 1442 1441 1441 1439 1437 1436 1435 1431 1428 1429 1429 1425 1424 1421 1417 1414 1412 1413 1415 1416 1419 1424 1427 1430 1432 1433 1435 1435 1433 1433 1434 1436 1438 1440 1442 1444 1448 1453 1454 1451 1449 1451 1454 1454 1453 1452 1451 1454 1456 1460 1464 1469 1472 1477 1488 1494 1488 1492 1506 1513 1513 1510 1505 1504 1505 1507 1508 1508 1509 1510 1512 1513 1513 1513 1513 1512 1513 1513
1435 1434 1433 1433 1434 1435 1436 1438 1439 1440 1440 1440 1438 1437 1437 1435 1434 1431 1427 1426 1425 1421 1419 1417 1415 1413 1411 1411 1414 1414 1418 1426 1427 1429 1432 1433 1434 1435 1433 1432 1433 1433 1436 1441 1442 1442 1445 1449 1453 1454 1454 1455 1455 1454 1454 1453 1452 1453 1455 1461 1464 1463 1465 1472 1482 1489 1491 1496 1503 1501 1500 1505 1505 1504 1504 1506 1506 1507 1509 1510 1512 1513 1513 1513 1513 1513 1514 1514
1434 1434 1433 1434 1435 1436 1437 1439 1439 1439 1439 1437 1436 1435 1435 1434 1432 1431 1428 1425 1423 1419 1416 1414 1411 1411 1411 1410 1412 1413 1418 1426 1430 1429 1431 1433 1434 1434 1432 1431 1432 1433 1434 1439 1442 1441 1444 1449 1454 1457 1457 1454 1452 1452 1453 1452 1453 1455 1461 1467 1467 1463 1463 1466 1472 1478 1486 1496 1497 1493 1501 1508 1505 1503 1504 1505 1506 1508 1510 1512 1512 1513 1513 1513 1514 1514 1515 1515
1433 1433 1433 1434 1436 1437 1437 1437 1438 1439 1438 1436 1436 1435 1434 1433 1431 1430 1427 1424 1422 1419 1416 1413 1410 1410 1411 1410 1412 1414 1417 1424 1431 1431 1430 1432 1433 1432 1431 1430 1431 1432 1432 1435 1436 1437 1444 1451 1455 1460 1464 1463 1461 1460 1457 1454 1457 1462 1467 1471 1469 1467 1467 1468 1473 1475 1481 1495 1493 1486 1501 1511 1504 1503 1505 1504 1507 1509 1511 1513 1512 1513 1514 1514 1515 1516 1516 1517
1432 1433 1434 1435 1436 1437 1436 1436 1436 1437 1437 1437 1436 1435 1434 1432 1428 1426 1425 1422 1420 1420 1417 1413 1410 1410 1411 1411 1413 1416 1416 1418 1425 1430 1430 1432 1432 1431 1431 1430 1430 1431 1431 1432 1432 1434 1445 1455 1454 1456 1465 1470 1470 1468 1463 1460 1463 1467 1470 1471 1471 1469 1464 1464 1473 1473 1477 1496 1495 1485 1498 1510 1504 1504 1506 1506 1508 1511 1512 1514 1513 1514 1515 1515 1516 1517 1518 1518
1431 1433 1436 1437 1438 1437 1436 1435 1435 1435 1435 1436 1436 1434 1433 1431 1426 1422 1422 1420 1418 1418 1417 1414 1411 1410 1411 1412 1415 1419 1419 1417 1420 1426 1429 1431 1432 1432 1431 1430 1430 1431 1431 1432 1433 1436 1449 1461 1461 1456 1459 1462 1463 1464 1465 1464 1464 1467 1470 1472 1473 1474 1467 1465 1472 1472 1476 1492 1494 1488 1496 1505 1504 1505 1507 1507 1508 1510 1513 1514 1514 1515 1516 1517 1518 1518 1519 1519
1431 1432 1434 1436 1438 1438 1436 1435 1435 1434 1434 1434 1434 1432 1432 1431 1427 1421 1419 1418 1416 1416 1416 1415 1413 1412 1412 1414 1417 1422 1424 1422 1421 1426 1430 1431 1432 1433 1432 1431 1431 1431 1432 1433 1435 1438 1448 1460 1466 1466 1467 1468 1467 1468 1469 1467 1468 1471 1474 1474 1475 1475 1470 1464 1467 1472 1477 1484 1490 1493 1495 1496 1500 1504 1505 1507 1509 1510 1512 1514 1514 1516 1517 1518 1519 1519 1520 1520
1431 1430 1430 1432 1434 1435 1435 1434 1433 1433 1433 1433 1433 1432 1430 1429 1428 1424 1420 1417 1416 1416 1415 1415 1416 1416 1415 1415 1417 1422 1426 1426 1428 1430 1431 1432 1432 1432 1433 1433 1432 1432 1433 1435 1436 1439 1448 1460 1467 1468 1472 1474 1473 1472 1470 1470 1476 1481 1481 1480 1479 1477 1472 1467 1472 1482 1480 1473 1478 1489 1493 1494 1499 1502 1504 1507 1509 1510 1512 1513 1514 1516 1517 1518 1519 1520 1521 1521
1430 1430 1430 1431 1431 1431 1431 1430 1430 1432 1432 1432 1432 1431 1430 1428 1427 1425 1421 1418 1418 1418 1417 1418 1421 1420 1418 1416 1417 1422 1425 1426 1430 1432 1432 1433 1434 1434 1435 1436 1435 1434 1434 1436 1439 1441 1449 1462 1468 1467 1470 1475 1475 1475 1472 1471 1476 1482 1484 1484 1482 1481 1479 1477 1480 1486 1484 1476 1477 1486 1493 1500 1503 1504 1506 1508 1509 1511 1512 1513 1515 1516 1517 1518 1519 1520 1521 1521
1430 1430 1430 1431 1431 1430 1429 1429 1430 1431 1432 1432 1431 1430 1430 1429 1426 1424 1422 1420 1420 1420 1419 1422 1424 1422 1420 1418 1419 1423 1426 1425 1426 1429 1431 1433 1434 1435 1437 1438 1437 1437 1436 1439 1442 1441 1447 1461 1468 1466 1468 1476 1478 1477 1476 1474 1476 1481 1486 1487 1483 1481 1483 1484 1485 1486 1485 1485 1488 1491 1496 1504 1508 1507 1508 1509 1510 1512 1514 1515 1516 1517 1517 1519 1520 1521 1522 1521
1430 1430 1430 1431 1430 1429 1429 1429 1429 1431 1431 1431 1431 1429 1428 1427 1425 1422 1422 1421 1421 1420 1420 1422 1424 1423 1422 1422 1423 1426 1428 1426 1425 1427 1429 1430 1432 1433 1435 1437 1438 1438 1439 1442 1444 1443 1446 1460 1468 1464 1466 1477 1481 1480 1480 1477 1476 1480 1487 1489 1487 1483 1485 1488 1489 1488 1486 1488 1494 1497 1498 1503 1508 1509 1509 1511 1512 1514 1516 1517 1517 1517 1519 1520 1520 1522 1523 1522
1430 1429 1429 1430 1429 1428 1428 1429 1429 1430 1429 1429 1430 1429 1426 1424 1423 1421 1421 1423 1422 1421 1421 1422 1421 1423 1425 1426 1428 1429 1429 1427 1427 1429 1430 1430 1431 1433 1435 1437 1439 1440 1442 1444 1447 1449 1450 1458 1464 1463 1468 1480 1483 1481 1480 1475 1472 1479 1489 1494 1492 1489 1489 1491 1492 1492 1489 1488 1493 1496 1497 1502 1508 1509 1510 1513 1514 1516 1518 1518 1518 1518 1520 1520 1521 1523 1523 1524